SCP
0 0 0 0 0 0 0 0 0 0 0 0 0 0 0 0 0 0 0 0 0 0 0 -0 0 -0 -0 -0 -0 -0 -0 -0 -0 -0 -0 -0 -0 -0 -0 -0 -0 0 0
0 0 0 0 0 0 0 0 0 0 -0 0 0 0 0 0 0 0 0 0 0 0 0 0 0 0 -0 -0 -0 -0 -0 -0 0 -0 -0 -0 -0 -0 -0 -0 -0 -0 0
0 0 0 0 0 0 0 0 0 0 -0 -0 0 0 0 0 0 0 0 0 0 0 0 0 -0 0 -0 -0 -0 -0 -0 -0 0 0 -0 -0 -0 -0 -0 -0 -0 -0 -0
0 0 0 0 0 0 0 0 0 0 0 0 0 0 0 0 0 0 0 0 0 0 0 0 0 0 -0 -0 -0 -0 -0 0 0 -0 -0 -0 -0 -0 -0 -0 -0 -0 -0
0 0 0 0 0 0 0 0 0 0 0 0 0 0 0 0 0 0 0 0 0 0 0 0 0 0 0 -0 0 0 -0 0 -0 0 -0 -0 -0 -0 -0 -0 -0 -0 -0
0 0 0 0 0 0 0 0 0 0 0 0 0 0 0 0 0 0 0 0 0 0 0 0 0 0 0 0 -0 -0 0 -0 -0 -0 0 -0 -0 -0 -0 -0 -0 -0 -0
0 0 0 0 0 0 0 0 0 0 0 0 0 0 0 0 0 0 0 0 0 0 0 0 0 0 0 0 0 -0 0 0 0 0 -0 0 0 -0 -0 -0 -0 -0 0
0 0 0 0 0 0 0 0 0 0 0 0 0 0 0 0 0 0 0 0 0 0 0 0 0 0 0 0 0 0 -0 -0 0 0 0 0 0 -0 0 0 0 0 0
0 0 0 0 0 0 0 0 0 0 0 0 0 0 0 0 0 0 0 0 0 0 0 0 0 0 0 0 0 0 0 -0 -0 0 0 0 0 0 0 0 0 0 0
0 -0 0 0 0 0 0 0 0 0 0 0 0 0 0 0 0 0 0 0 0 0 0 0 0 0 0 0 0 0 0 0 0 0 0 0 0 0 0 0 0 0 0
0 0 0 0 0 0 0 0 0 0 0 0 0 0 0 0 0 0 0 0 0 0 0 0 0 0 0 0 0 0 0 0 0 0 0 0 0 0 0 0 0 0 0
0 0 0 0 0 0 0 0 0 0 0 0 0 0 0 0 0 0 0 0 0 0 0 0 0 0 0 0 0 0 0 0 0 0 0 0 0 0 0 0 0 0 0
0 0 0 0 0 0 0 0 0 0 0 0 0 0 0 0 0 0 0 0 0 0 0 0 0 0 0 0 0 0 0 0 0 0 0 0 0 0 0 0 0 0 0
0 0 0 0 0 0 0 0 0 0 0 0 0 0 0 0 0 0 0 0 0 0 0 0 0 0 0 0 0 0 0 0 0 0 0 0 0 0 0 0 0 0 0
0 0 0 0 0 0 0 0 0 0 0 0 0 0 -0 0 0 0 0 0 0 0 0 0 0 0 0 0 0 0 0 0 0 0 0 0 0 0 0 0 0 0 0
0 0 0 0 0 0 0 0 0 0 0 0 0 0 0 0 -0 0 0 0 0 0 0 0 0 0 0 0 0 0 0 0 0 0 0 0 0 0 0 0 0 0 0
0 0 0 0 0 0 0 0 0 0 0 0 0 0 0 0 0 0 0 0 -0 0 0 0 0 0 0 0 0 0 0 0 0 0 0 0 0 0 0 0 0 0 0
0 0 0 0 0 0 0 0 0 0 0 0 0 0 0 0 0 0 0 0 0 -0 0 0 0 0 0 0 0 0 0 0 0 0 0 0 0 0 0 0 0 0 0
0 0 0 0 0 0 0 0 0 0 0 0 0 0 0 0 0 0 0 0 0 0 0 0 0 0 0 0 0 0 0 0 0 0 0 0 0 0 0 0 0 0 0
0 0 0 0 0 0 0 0 0 0 0 0 0 0 0 0 0 0 0 0 0 0 0 0 0 0 0 0 0 0 0 0 0 0 0 0 0 0 0 0 0 0 0
0 0 0 0 0 0 0 0 0 0 0 0 0 0 0 0 0 0 0 0 0 0 0 0 0 0 0 0 0 0 0 0 0 0 0 0 0 0 0 0 0 0 0
0 0 0 0 0 0 0 0 0 0 0 0 0 0 0 0 0 0 0 0 0 0 0 0 0 0 0 0 0 0 0 0 0 0 0 0 0 0 0 0 0 0 0
0 0 0 0 0 0 0 0 0 0 0 0 0 0 0 0 0 0 0 0 0 0 0 0 0 0 0 0 0 0 0 0 0 0 0 0 0 0 0 0 0 0 0
0 0 0 0 0 0 0 0 0 0 0 0 0 0 0 0 0 0 0 0 0 0 0 0 0 0 0 0 0 0 0 0 0 0 0 0 0 0 0 0 0 0 0
-0 0 0 0 0 0 0 0 0 0 0 0 0 0 0 0 0 0 0 0 0 0 0 0 0 0 0 0 0 0 0 0 0 0 0 0 0 0 0 0 0 0 0
-0 0 0 0 0 0 0 0 0 0 0 0 0 0 0 0 0 0 0 0 0 0 0 0 0 0 0 0 0 0 0 0 0 0 0 0 0 0 0 0 0 0 0
Wind_Speed_500mb
37 43 44 34 53 53 49 55 55 52 51 44 36 37 33 29 23 18 16 9 3 13 26 31 34 34 33 31 33 34 31 32 31 32 29 28 27 27 26 25 23 22 19
29 39 42 39 36 61 55 54 55 49 54 48 41 39 38 32 27 23 20 13 4 10 23 36 30 38 34 28 31 32 30 33 34 30 30 29 26 24 25 25 22 19 16
25 35 33 47 44 38 71 61 64 63 62 50 51 54 47 40 32 29 23 18 8 3 26 32 31 32 37 28 33 34 31 30 29 31 28 28 26 24 23 23 21 17 14
31 30 33 39 42 42 48 76 64 70 68 64 69 61 55 46 38 35 28 23 14 11 24 35 40 30 37 32 32 30 33 32 30 29 28 28 27 24 21 19 19 16 13
34 29 28 30 44 46 41 44 70 76 75 70 69 64 57 52 44 41 33 27 16 13 20 37 38 35 29 36 34 29 34 36 30 30 26 25 26 25 22 20 18 17 13
29 28 25 32 45 41 39 45 44 75 62 78 74 63 55 50 47 44 37 32 22 15 17 27 41 37 35 34 36 32 35 32 36 34 30 27 25 26 24 22 20 18 16
23 33 15 24 34 51 38 36 35 50 60 64 75 69 54 52 50 48 44 39 30 21 20 24 28 32 39 34 33 33 35 32 30 32 31 30 27 26 24 23 21 18 17
21 23 22 11 21 34 43 32 41 36 47 72 82 83 60 49 54 52 50 46 38 30 23 25 28 28 33 40 39 35 38 34 34 30 31 32 27 26 25 24 22 21 19
27 20 26 17 14 20 40 37 36 40 49 61 92 73 52 30 55 57 57 53 47 39 31 27 29 28 30 32 39 43 39 38 36 33 30 33 30 29 27 25 24 23 22
34 20 24 20 15 17 28 39 37 34 27 63 80 65 58 53 43 32 59 58 54 48 39 33 30 29 27 30 31 36 36 46 44 39 35 34 36 33 30 30 27 26 26
31 24 19 24 14 16 27 29 36 33 43 45 60 71 56 41 52 41 42 58 61 56 48 40 35 32 29 28 28 28 27 28 30 42 46 40 36 37 34 32 29 29 28
31 29 14 20 13 17 13 18 29 34 58 55 59 69 77 59 57 48 49 68 64 58 54 50 45 40 37 32 30 25 24 24 24 27 36 44 46 43 41 39 34 33 32
35 30 22 14 15 14 13 15 24 30 37 66 52 45 43 39 43 54 48 54 59 54 54 54 50 45 45 40 35 29 28 28 26 25 27 34 40 42 45 46 40 37 35
36 33 26 20 15 15 13 9 12 37 41 52 65 41 40 48 35 31 53 47 30 35 44 50 46 51 52 48 42 33 35 34 33 32 32 31 35 39 42 44 42 40 38
28 28 26 25 19 12 19 13 7 21 36 35 52 56 54 47 37 39 38 31 32 40 44 40 40 39 40 46 48 45 43 40 42 42 41 40 39 38 40 43 45 44 45
24 28 29 30 22 16 13 9 11 17 17 33 26 55 54 43 38 35 46 41 35 37 39 31 20 30 26 36 40 40 46 50 44 49 54 52 48 46 45 43 45 46 49
23 28 30 31 26 18 11 6 8 5 13 27 29 38 37 42 36 32 41 41 36 35 40 36 28 24 29 26 28 30 33 35 42 45 49 59 62 58 55 53 51 49 51
23 28 28 26 26 23 15 2 5 2 3 14 17 34 36 32 35 30 34 39 31 37 38 34 30 31 31 28 28 34 40 50 46 47 39 43 57 64 62 63 61 57 53
29 35 31 26 23 22 21 9 4 7 5 8 8 17 30 30 40 33 28 30 27 26 31 34 34 38 32 31 30 32 38 42 49 50 49 49 49 55 59 68 70 65 61
29 32 35 32 26 21 20 17 10 4 2 2 5 14 21 27 32 36 35 33 31 25 29 33 32 35 37 30 32 32 38 43 36 37 36 46 55 58 59 59 66 68 66
27 33 34 32 29 20 21 21 16 7 5 1 10 13 9 15 27 30 41 47 42 36 34 30 33 37 34 34 34 35 34 29 35 38 41 33 42 52 56 49 56 66 68
26 29 30 31 31 27 20 19 21 16 6 6 6 6 15 19 21 20 19 34 40 30 33 36 31 35 34 36 33 31 30 26 34 35 29 31 33 47 39 47 43 43 51
28 26 26 25 28 29 26 24 20 16 16 9 11 8 7 13 24 19 22 23 37 39 40 33 34 35 35 33 28 33 38 32 29 25 26 29 30 30 36 44 41 39 38
28 24 22 22 22 24 27 26 20 16 14 13 10 11 11 8 8 13 18 27 25 21 30 40 41 46 44 43 43 40 38 39 34 39 37 41 38 39 38 40 40 44 47
27 21 18 19 21 20 20 23 18 13 9 6 6 5 5 5 4 10 10 15 18 17 25 33 33 32 36 39 47 51 55 48 40 40 35 39 37 38 40 43 37 37 39
23 20 18 17 18 19 18 16 17 16 13 10 9 9 7 7 6 2 3 9 17 13 12 13 14 24 23 32 36 39 39 39 39 31 36 38 39 30 37 42 26 18 24
Wind_Direction_500mb
258 237 238 227 195 205 201 197 199 200 192 190 197 187 184 189 192 200 196 211 191 183 174 185 173 173 172 187 176 177 180 165 165 160 157 153 154 148 142 132 127 122 117
263 247 238 234 214 202 191 196 200 204 201 188 208 199 198 199 199 202 204 209 217 173 192 187 188 181 181 194 173 184 180 172 167 167 166 157 158 147 142 137 132 127 123
270 253 242 234 235 214 201 211 206 209 200 205 209 209 204 204 208 208 205 208 206 206 184 184 181 197 184 194 187 192 179 180 174 175 171 169 161 154 150 145 141 138 135
298 257 250 235 223 225 223 215 208 207 214 214 209 208 210 209 211 213 206 205 198 186 177 169 190 212 189 194 205 197 176 190 183 183 183 181 171 164 163 159 154 152 154
311 270 257 247 229 227 231 223 216 215 206 206 208 209 211 211 209 207 207 206 206 196 182 185 197 210 211 197 210 203 192 193 193 193 196 192 181 178 177 175 173 173 172
305 297 254 253 240 228 240 230 223 214 208 207 203 205 208 209 209 205 209 207 204 204 188 189 198 208 204 201 213 209 203 213 196 201 199 201 198 190 189 192 189 189 188
304 309 280 239 243 229 225 224 235 211 209 209 200 201 207 206 206 208 205 208 206 202 201 198 196 204 205 211 215 220 206 215 214 210 203 213 206 204 201 201 203 203 205
317 311 307 266 237 216 217 214 217 219 218 222 200 193 192 203 208 208 206 209 211 208 208 209 208 206 205 213 216 222 211 216 226 219 214 221 219 213 214 210 210 214 217
307 317 315 316 259 224 210 212 220 218 221 208 204 191 183 192 204 207 207 210 214 217 213 218 218 219 214 212 221 221 215 210 220 232 231 225 227 228 222 220 219 219 223
329 308 304 318 302 235 207 211 220 215 229 194 190 189 185 192 186 192 206 211 217 220 220 222 225 224 226 221 224 224 225 214 217 221 234 236 232 241 230 227 226 226 228
341 324 296 308 323 274 211 211 213 229 201 198 197 193 194 190 201 197 194 207 216 220 221 226 229 228 227 228 222 224 225 228 229 219 220 232 242 245 246 243 235 236 237
350 348 310 299 330 297 223 189 208 200 197 206 210 209 204 203 214 207 206 211 213 220 219 224 228 229 228 229 228 223 223 228 234 238 232 228 229 242 243 244 244 243 243
351 350 355 309 312 313 280 185 176 172 219 211 212 193 193 205 230 219 200 201 213 224 227 234 233 236 236 231 231 228 229 233 237 239 241 243 244 239 236 246 249 249 247
351 358 349 348 300 308 325 265 195 182 212 218 190 189 204 219 232 221 207 198 196 217 236 236 244 243 241 241 239 238 242 240 241 242 244 245 247 249 251 253 249 248 251
0 357 353 355 336 319 288 348 142 185 206 208 193 201 224 237 234 227 217 210 218 222 233 244 253 247 242 247 246 244 247 250 249 250 250 250 250 251 253 256 259 257 254
6 3 3 4 341 315 305 321 342 203 200 206 187 194 212 224 234 223 218 214 224 239 247 260 251 249 248 246 236 239 250 251 249 247 247 248 248 251 252 254 257 258 258
6 6 2 1 359 355 314 309 334 122 197 194 182 200 206 202 217 234 220 225 242 239 243 258 260 260 256 230 219 247 248 238 258 251 245 247 247 245 248 251 253 254 254
12 2 2 7 11 20 21 73 10 10 212 247 177 196 206 212 212 222 224 236 240 237 246 247 262 258 271 269 251 253 255 252 257 250 247 250 248 246 248 248 248 249 251
11 1 11 14 20 30 32 40 354 70 82 195 247 186 202 213 231 229 229 235 234 247 247 236 257 253 260 270 268 263 269 267 261 256 247 248 251 244 249 251 243 244 246
10 7 14 16 18 28 31 32 29 27 294 225 193 210 234 238 235 234 244 245 238 252 251 250 260 255 272 266 262 269 279 267 270 264 262 268 253 245 249 251 243 241 244
20 18 17 18 17 10 23 23 22 19 319 216 251 246 239 231 226 228 243 243 249 247 248 258 252 254 255 267 264 274 263 283 280 276 268 276 260 244 245 254 249 246 247
4 9 14 19 20 18 14 10 359 3 323 282 274 260 241 258 254 252 235 231 239 240 241 238 253 254 257 276 266 262 268 274 284 280 284 270 274 252 252 244 248 255 255
8 7 12 21 23 20 14 8 10 5 360 313 279 291 291 259 257 249 258 263 260 253 251 253 253 250 248 256 260 260 261 267 278 276 282 285 275 269 257 251 253 254 255
2 2 5 13 19 20 16 13 25 15 11 7 345 307 274 291 263 245 236 243 253 251 249 247 248 259 249 248 247 259 257 262 271 266 273 283 294 284 275 269 267 256 254
0 5 7 4 6 15 22 20 26 30 29 20 26 16 317 326 341 264 239 240 222 231 249 258 260 251 254 259 251 255 255 260 270 268 259 269 282 292 285 274 274 266 256
1 11 12 10 7 4 9 31 36 37 57 75 84 75 58 56 50 225 232 220 225 211 207 222 239 238 247 264 253 247 244 249 248 242 252 265 277 282 293 290 285 271 268
Wind_Speed_850mb
37 43 44 34 53 53 49 55 55 52 51 44 36 37 33 29 23 18 16 9 3 13 26 31 34 34 33 31 33 34 31 32 31 32 29 28 27 27 26 25 23 22 19
29 39 42 39 36 61 55 54 55 49 54 48 41 39 38 32 27 23 20 13 4 10 23 36 30 38 34 28 31 32 30 33 34 30 30 29 26 24 25 25 22 19 16
25 35 33 47 44 38 71 61 64 63 62 50 51 54 47 40 32 29 23 18 8 3 26 32 31 32 37 28 33 34 31 30 29 31 28 28 26 24 23 23 21 17 14
31 30 33 39 42 42 48 76 64 70 68 64 69 61 55 46 38 35 28 23 14 11 24 35 40 30 37 32 32 30 33 32 30 29 28 28 27 24 21 19 19 16 13
34 29 28 30 44 46 41 44 70 76 75 70 69 64 57 52 44 41 33 27 16 13 20 37 38 35 29 36 34 29 34 36 30 30 26 25 26 25 22 20 18 17 13
29 28 25 32 45 41 39 45 44 75 62 78 74 63 55 50 47 44 37 32 22 15 17 27 41 37 35 34 36 32 35 32 36 34 30 27 25 26 24 22 20 18 16
23 33 15 24 34 51 38 36 35 50 60 64 75 69 54 52 50 48 44 39 30 21 20 24 28 32 39 34 33 33 35 32 30 32 31 30 27 26 24 23 21 18 17
21 23 22 11 21 34 43 32 41 36 47 72 82 83 60 49 54 52 50 46 38 30 23 25 28 28 33 40 39 35 38 34 34 30 31 32 27 26 25 24 22 21 19
27 20 26 17 14 20 40 37 36 40 49 61 92 73 52 30 55 57 57 53 47 39 31 27 29 28 30 32 39 43 39 38 36 33 30 33 30 29 27 25 24 23 22
34 20 24 20 15 17 28 39 37 34 27 63 80 65 58 53 43 32 59 58 54 48 39 33 30 29 27 30 31 36 36 46 44 39 35 34 36 33 30 30 27 26 26
31 24 19 24 14 16 27 29 36 33 43 45 60 71 56 41 52 41 42 58 61 56 48 40 35 32 29 28 28 28 27 28 30 42 46 40 36 37 34 32 29 29 28
31 29 14 20 13 17 13 18 29 34 58 55 59 69 77 59 57 48 49 68 64 58 54 50 45 40 37 32 30 25 24 24 24 27 36 44 46 43 41 39 34 33 32
35 30 22 14 15 14 13 15 24 30 37 66 52 45 43 39 43 54 48 54 59 54 54 54 50 45 45 40 35 29 28 28 26 25 27 34 40 42 45 46 40 37 35
36 33 26 20 15 15 13 9 12 37 41 52 65 41 40 48 35 31 53 47 30 35 44 50 46 51 52 48 42 33 35 34 33 32 32 31 35 39 42 44 42 40 38
28 28 26 25 19 12 19 13 7 21 36 35 52 56 54 47 37 39 38 31 32 40 44 40 40 39 40 46 48 45 43 40 42 42 41 40 39 38 40 43 45 44 45
24 28 29 30 22 16 13 9 11 17 17 33 26 55 54 43 38 35 46 41 35 37 39 31 20 30 26 36 40 40 46 50 44 49 54 52 48 46 45 43 45 46 49
23 28 30 31 26 18 11 6 8 5 13 27 29 38 37 42 36 32 41 41 36 35 40 36 28 24 29 26 28 30 33 35 42 45 49 59 62 58 55 53 51 49 51
23 28 28 26 26 23 15 2 5 2 3 14 17 34 36 32 35 30 34 39 31 37 38 34 30 31 31 28 28 34 40 50 46 47 39 43 57 64 62 63 61 57 53
29 35 31 26 23 22 21 9 4 7 5 8 8 17 30 30 40 33 28 30 27 26 31 34 34 38 32 31 30 32 38 42 49 50 49 49 49 55 59 68 70 65 61
29 32 35 32 26 21 20 17 10 4 2 2 5 14 21 27 32 36 35 33 31 25 29 33 32 35 37 30 32 32 38 43 36 37 36 46 55 58 59 59 66 68 66
27 33 34 32 29 20 21 21 16 7 5 1 10 13 9 15 27 30 41 47 42 36 34 30 33 37 34 34 34 35 34 29 35 38 41 33 42 52 56 49 56 66 68
26 29 30 31 31 27 20 19 21 16 6 6 6 6 15 19 21 20 19 34 40 30 33 36 31 35 34 36 33 31 30 26 34 35 29 31 33 47 39 47 43 43 51
28 26 26 25 28 29 26 24 20 16 16 9 11 8 7 13 24 19 22 23 37 39 40 33 34 35 35 33 28 33 38 32 29 25 26 29 30 30 36 44 41 39 38
28 24 22 22 22 24 27 26 20 16 14 13 10 11 11 8 8 13 18 27 25 21 30 40 41 46 44 43 43 40 38 39 34 39 37 41 38 39 38 40 40 44 47
27 21 18 19 21 20 20 23 18 13 9 6 6 5 5 5 4 10 10 15 18 17 25 33 33 32 36 39 47 51 55 48 40 40 35 39 37 38 40 43 37 37 39
23 20 18 17 18 19 18 16 17 16 13 10 9 9 7 7 6 2 3 9 17 13 12 13 14 24 23 32 36 39 39 39 39 31 36 38 39 30 37 42 26 18 24
Wind_Direction_850mb
258 237 238 227 195 205 201 197 199 200 192 190 197 187 184 189 192 200 196 211 191 183 174 185 173 173 172 187 176 177 180 165 165 160 157 153 154 148 142 132 127 122 117
263 247 238 234 214 202 191 196 200 204 201 188 208 199 198 199 199 202 204 209 217 173 192 187 188 181 181 194 173 184 180 172 167 167 166 157 158 147 142 137 132 127 123
270 253 242 234 235 214 201 211 206 209 200 205 209 209 204 204 208 208 205 208 206 206 184 184 181 197 184 194 187 192 179 180 174 175 171 169 161 154 150 145 141 138 135
298 257 250 235 223 225 223 215 208 207 214 214 209 208 210 209 211 213 206 205 198 186 177 169 190 212 189 194 205 197 176 190 183 183 183 181 171 164 163 159 154 152 154
311 270 257 247 229 227 231 223 216 215 206 206 208 209 211 211 209 207 207 206 206 196 182 185 197 210 211 197 210 203 192 193 193 193 196 192 181 178 177 175 173 173 172
305 297 254 253 240 228 240 230 223 214 208 207 203 205 208 209 209 205 209 207 204 204 188 189 198 208 204 201 213 209 203 213 196 201 199 201 198 190 189 192 189 189 188
304 309 280 239 243 229 225 224 235 211 209 209 200 201 207 206 206 208 205 208 206 202 201 198 196 204 205 211 215 220 206 215 214 210 203 213 206 204 201 201 203 203 205
317 311 307 266 237 216 217 214 217 219 218 222 200 193 192 203 208 208 206 209 211 208 208 209 208 206 205 213 216 222 211 216 226 219 214 221 219 213 214 210 210 214 217
307 317 315 316 259 224 210 212 220 218 221 208 204 191 183 192 204 207 207 210 214 217 213 218 218 219 214 212 221 221 215 210 220 232 231 225 227 228 222 220 219 219 223
329 308 304 318 302 235 207 211 220 215 229 194 190 189 185 192 186 192 206 211 217 220 220 222 225 224 226 221 224 224 225 214 217 221 234 236 232 241 230 227 226 226 228
341 324 296 308 323 274 211 211 213 229 201 198 197 193 194 190 201 197 194 207 216 220 221 226 229 228 227 228 222 224 225 228 229 219 220 232 242 245 246 243 235 236 237
350 348 310 299 330 297 223 189 208 200 197 206 210 209 204 203 214 207 206 211 213 220 219 224 228 229 228 229 228 223 223 228 234 238 232 228 229 242 243 244 244 243 243
351 350 355 309 312 313 280 185 176 172 219 211 212 193 193 205 230 219 200 201 213 224 227 234 233 236 236 231 231 228 229 233 237 239 241 243 244 239 236 246 249 249 247
351 358 349 348 300 308 325 265 195 182 212 218 190 189 204 219 232 221 207 198 196 217 236 236 244 243 241 241 239 238 242 240 241 242 244 245 247 249 251 253 249 248 251
0 357 353 355 336 319 288 348 142 185 206 208 193 201 224 237 234 227 217 210 218 222 233 244 253 247 242 247 246 244 247 250 249 250 250 250 250 251 253 256 259 257 254
6 3 3 4 341 315 305 321 342 203 200 206 187 194 212 224 234 223 218 214 224 239 247 260 251 249 248 246 236 239 250 251 249 247 247 248 248 251 252 254 257 258 258
6 6 2 1 359 355 314 309 334 122 197 194 182 200 206 202 217 234 220 225 242 239 243 258 260 260 256 230 219 247 248 238 258 251 245 247 247 245 248 251 253 254 254
12 2 2 7 11 20 21 73 10 10 212 247 177 196 206 212 212 222 224 236 240 237 246 247 262 258 271 269 251 253 255 252 257 250 247 250 248 246 248 248 248 249 251
11 1 11 14 20 30 32 40 354 70 82 195 247 186 202 213 231 229 229 235 234 247 247 236 257 253 260 270 268 263 269 267 261 256 247 248 251 244 249 251 243 244 246
10 7 14 16 18 28 31 32 29 27 294 225 193 210 234 238 235 234 244 245 238 252 251 250 260 255 272 266 262 269 279 267 270 264 262 268 253 245 249 251 243 241 244
20 18 17 18 17 10 23 23 22 19 319 216 251 246 239 231 226 228 243 243 249 247 248 258 252 254 255 267 264 274 263 283 280 276 268 276 260 244 245 254 249 246 247
4 9 14 19 20 18 14 10 359 3 323 282 274 260 241 258 254 252 235 231 239 240 241 238 253 254 257 276 266 262 268 274 284 280 284 270 274 252 252 244 248 255 255
8 7 12 21 23 20 14 8 10 5 360 313 279 291 291 259 257 249 258 263 260 253 251 253 253 250 248 256 260 260 261 267 278 276 282 285 275 269 257 251 253 254 255
2 2 5 13 19 20 16 13 25 15 11 7 345 307 274 291 263 245 236 243 253 251 249 247 248 259 249 248 247 259 257 262 271 266 273 283 294 284 275 269 267 256 254
0 5 7 4 6 15 22 20 26 30 29 20 26 16 317 326 341 264 239 240 222 231 249 258 260 251 254 259 251 255 255 260 270 268 259 269 282 292 285 274 274 266 256
1 11 12 10 7 4 9 31 36 37 57 75 84 75 58 56 50 225 232 220 225 211 207 222 239 238 247 264 253 247 244 249 248 242 252 265 277 282 293 290 285 271 268